This is the latest recevied weather packets stored in our database for station/object KB3UMW-13. If no packets are shown the sender has not sent any weather packets the latest 10 day(s).
| Time | Temp. | Humidity | Pressure | Rain* | Wind** | Luminosity | Snow |
|---|---|---|---|---|---|---|---|
| 1778064330 | 11.67° C | 99% | 1008.8 hPa | 4.32 mm | - | 5 W/m² | - |
| 1778064028 | 11.67° C | 98% | 1008.8 hPa | 4.83 mm | - | 2 W/m² | - |
| 1778063725 | 11.67° C | 98% | 1008.7 hPa | 3.56 mm | - | 1 W/m² | - |
| 1778063421 | 11.67° C | 98% | 1009 hPa | 4.83 mm | - | 1 W/m² | - |
| 1778063120 | 11.67° C | 98% | 1008.9 hPa | 4.83 mm | - | 1 W/m² | - |
| 1778062817 | 11.67° C | 97% | 1009 hPa | 3.56 mm | - | 1 W/m² | - |
| 1778062513 | 11.67° C | 96% | 1009 hPa | 3.05 mm | - | 1 W/m² | - |
| 1778062211 | 11.67° C | 96% | 1009 hPa | 3.05 mm | - | 0 W/m² | - |
| 1778061909 | 11.67° C | 95% | 1009.2 hPa | 1.78 mm | - | 0 W/m² | - |
| 1778061607 | 12.22° C | 94% | 1009 hPa | 1.78 mm | - | 0 W/m² | - |
| 1778061305 | 12.22° C | 94% | 1009 hPa | 1.27 mm | - | 0 W/m² | - |
| 1778061001 | 12.22° C | 93% | 1009 hPa | 0 mm | - | 0 W/m² | - |
| 1778060699 | 11.67° C | 94% | 1008.9 hPa | 0.51 mm | - | 0 W/m² | - |
| 1778060396 | 12.22° C | 93% | 1008.8 hPa | 1.27 mm | - | 0 W/m² | - |
| 1778060094 | 12.22° C | 94% | 1008.7 hPa | 1.27 mm | - | 0 W/m² | - |
| 1778059792 | 12.22° C | 93% | 1008.8 hPa | 1.78 mm | - | 0 W/m² | - |
| 1778059490 | 12.78° C | 90% | 1008.8 hPa | 1.27 mm | - | 0 W/m² | - |
| 1778059186 | 12.78° C | 89% | 1008.5 hPa | 0.51 mm | - | 0 W/m² | - |
| 1778058884 | 12.78° C | 89% | 1008.6 hPa | 1.27 mm | - | 0 W/m² | - |
| 1778058581 | 12.78° C | 88% | 1008.8 hPa | 0.51 mm | - | 0 W/m² | - |
| 1778058279 | 12.78° C | 87% | 1009.1 hPa | 0 mm | - | 0 W/m² | - |
| 1778057975 | 10.56° C | 92% | 1009 hPa | 0 mm | - | 0 W/m² | - |
| 1778057672 | 10° C | 93% | 1008.7 hPa | 0 mm | - | 0 W/m² | - |
| 1778057368 | 10° C | 94% | 1008.8 hPa | 0 mm | - | 0 W/m² | - |
| 1778057066 | 9.44° C | 94% | 1008.8 hPa | 0 mm | - | 0 W/m² | - |
* Rain latest hour (hover to see other rain measurements)
** Current wind speed in m/s (hover to see current wind gust speed)